Wind_Speed
8 8 8 8 9 10 10 11 11 10 11 13 15 15 15 16 16 17 17 18 18 19 19 19 20 20 20 21 21 21 21 22 22 23 24 25 26 26 27 26 26 27 27 28
10 10 10 10 10 11 11 11 12 12 12 14 14 15 15 16 16 17 18 19 19 20 20 19 19 20 20 20 21 22 22 22 23 24 25 25 26 26 26 27 27 28 29 29
10 11 11 10 11 11 12 12 13 13 13 14 14 14 15 15 16 17 19 19 19 20 20 20 20 20 20 21 22 22 22 23 24 24 25 26 26 27 27 27 28 29 30 31
12 12 12 12 12 13 13 14 14 14 15 15 15 15 16 16 17 18 18 18 19 19 20 20 20 21 21 21 22 22 22 23 23 24 24 25 26 27 28 29 30 31 32 32
16 15 14 15 15 15 16 16 16 16 16 16 17 17 17 18 18 18 18 18 19 19 19 20 21 22 22 22 23 23 24 24 24 25 26 26 27 28 29 30 31 32 32 33
20 20 19 18 18 18 19 19 19 19 18 18 19 19 20 20 20 20 20 20 21 21 21 22 22 23 23 24 25 25 26 27 27 27 28 28 28 29 30 31 32 33 34 35
23 23 22 22 22 22 22 22 22 22 21 22 22 22 22 23 23 23 23 23 23 24 25 25 25 25 26 26 27 28 28 29 29 29 29 30 30 31 32 33 33 34 35 36
27 26 26 26 26 25 25 25 25 25 25 25 25 26 26 26 26 26 26 26 27 27 27 28 28 28 29 29 30 30 31 31 31 32 32 32 33 33 34 34 35 35 36 37
30 29 30 30 29 29 30 29 29 29 28 28 28 28 28 29 29 29 29 29 30 30 30 30 31 31 31 32 33 33 33 33 34 34 34 34 35 35 35 35 36 37 38 39
34 32 33 33 33 33 33 33 33 33 33 33 32 31 31 31 31 32 32 32 33 32 32 33 33 33 33 34 35 35 35 35 36 36 36 36 36 36 37 37 38 38 39 39
38 37 37 36 36 37 37 36 36 36 36 35 34 34 33 33 34 34 35 35 35 34 34 35 35 35 36 36 36 36 36 36 37 37 37 37 37 38 38 39 39 40 40 41
41 40 41 39 40 40 40 40 39 39 38 38 37 37 36 36 37 37 37 37 37 36 37 37 37 37 37 37 37 36 37 37 37 37 37 37 38 39 39 39 40 41 41 42
44 43 44 44 43 43 43 43 42 41 40 39 39 39 38 38 38 38 38 38 38 38 37 37 37 37 37 37 37 37 37 37 37 37 37 37 38 39 39 40 41 42 43 44
47 47 47 46 46 45 45 44 43 43 42 41 41 40 40 40 40 40 39 39 39 38 38 38 38 38 37 37 37 37 37 37 36 36 37 38 38 39 40 40 42 43 44 44
49 49 49 48 47 46 46 45 45 44 43 42 42 41 41 40 40 40 40 39 39 39 39 38 38 38 38 38 38 37 37 37 37 37 37 38 39 39 40 41 42 43 44 44
49 49 49 48 47 46 45 45 45 45 44 43 42 42 41 40 40 39 39 38 38 38 38 38 38 38 38 37 37 36 36 37 37 37 38 39 39 40 41 42 43 43 43 42
48 47 47 46 45 45 44 44 44 44 43 43 42 42 42 41 40 39 39 38 37 37 37 37 37 37 37 37 37 37 37 37 37 38 38 39 40 40 41 41 42 42 42 41
46 45 45 44 43 42 42 42 42 42 42 42 42 42 42 41 40 39 39 38 37 37 37 37 37 37 37 37 37 38 38 38 38 38 39 39 40 40 40 40 41 40 40 39
44 43 43 42 41 40 40 40 40 40 40 40 41 41 41 40 40 39 38 37 37 36 36 36 36 36 36 37 37 37 37 37 37 37 38 38 38 38 39 39 39 39 38 38
43 42 41 40 40 39 38 38 38 38 38 39 39 39 39 39 38 38 37 36 36 36 36 36 36 37 37 37 37 36 36 36 36 37 37 37 38 38 39 38 38 38 37 37
41 40 40 39 39 37 36 36 36 36 36 37 37 37 37 38 38 37 36 36 36 36 36 36 36 36 36 37 36 35 36 36 36 36 37 37 38 38 38 38 37 37 37 37
39 39 38 38 37 36 35 35 35 35 35 35 35 36 36 36 36 36 36 36 36 37 37 37 36 36 36 36 36 35 35 36 36 36 37 37 37 37 37 37 36 36 36 36
38 38 38 38 37 36 35 35 35 35 35 34 34 35 35 36 36 36 36 37 37 37 37 36 36 36 36 35 35 35 35 35 35 35 36 36 36 36 36 36 36 36 36 36
39 39 39 38 37 36 36 36 35 35 35 34 34 35 36 36 36 36 37 37 37 36 36 35 35 35 35 35 35 35 35 35 35 35 35 35 35 35 35 35 35 35 35 35
41 41 40 40 39 39 38 36 36 36 36 35 35 35 35 35 35 35 35 36 35 35 35 34 34 34 34 34 34 34 34 34 35 35 35 34 34 34 34 34 34 35 35 35
43 43 42 42 42 41 40 38 37 37 37 37 36 36 35 35 34 34 34 34 34 34 33 33 33 33 33 33 33 33 33 34 34 34 34 34 34 34 33 33 33 34 34 33
44 43 43 42 41 40 40 38 38 38 37 37 36 36 36 35 34 34 33 33 32 33 33 33 32 32 32 32 32 32 33 33 33 33 33 33 32 32 32 33 33 33 33 32
Wind_Direction
326 319 315 312 304 299 295 290 286 283 280 275 273 274 275 275 277 279 282 282 284 288 290 289 289 290 292 293 294 293 294 293 291 290 291 292 293 293 292 292 292 293 293 294
316 312 311 312 308 302 299 295 290 283 282 280 277 278 277 278 278 278 280 282 286 287 289 289 289 289 291 294 295 295 294 294 293 292 292 293 294 295 294 293 293 293 293 294
311 308 310 310 306 304 302 299 296 292 286 284 284 284 283 282 282 281 281 282 285 287 288 288 289 289 290 292 295 295 295 295 296 296 296 296 295 295 295 295 295 294 294 294
305 304 306 308 302 299 300 300 298 295 289 284 284 284 286 285 285 286 286 283 284 287 288 288 289 290 291 293 294 295 295 297 298 299 299 299 298 298 297 297 297 297 297 297
296 294 296 300 298 294 293 294 295 293 290 286 284 284 286 287 287 286 286 286 286 287 288 288 290 291 291 292 294 296 297 298 299 300 301 301 301 301 300 300 299 299 299 299
292 291 291 291 289 289 290 289 288 288 286 285 283 283 284 284 283 282 284 286 286 287 288 288 290 292 293 294 295 296 297 298 299 300 301 301 301 302 303 302 302 302 302 302
288 288 288 288 287 286 287 287 285 284 283 282 282 282 283 282 282 282 283 285 286 287 288 289 289 291 293 294 294 295 296 297 299 300 300 301 302 302 302 303 303 303 303 303
286 287 288 287 285 284 284 284 282 281 282 282 282 282 282 281 280 281 283 284 287 287 287 287 288 289 291 292 293 294 295 296 297 298 299 299 300 301 302 302 302 303 303 303
286 287 288 288 287 285 284 283 282 280 280 280 281 281 281 281 280 281 282 284 285 286 286 286 287 288 289 290 292 293 293 293 294 296 297 297 298 299 300 301 302 302 302 303
285 285 285 285 285 285 284 283 281 281 281 280 280 281 280 279 279 280 281 283 284 284 284 285 286 288 289 290 291 292 292 292 293 295 295 296 296 297 298 299 300 301 302 302
285 284 283 283 283 284 283 283 282 281 281 281 280 280 279 279 278 279 280 281 282 282 283 283 285 287 288 289 290 291 291 292 293 294 294 295 295 297 298 299 300 300 301 302
284 284 283 283 282 282 282 282 282 282 282 281 280 279 279 278 278 279 279 280 281 282 283 283 284 285 287 288 289 290 291 291 292 293 294 295 296 297 298 299 301 301 302 302
283 283 283 282 281 282 281 281 281 281 281 282 280 280 279 279 279 280 280 279 280 281 282 283 284 285 286 287 289 290 290 291 292 292 294 295 297 298 299 301 302 302 303 303
281 281 281 281 281 280 280 281 281 280 280 281 280 279 279 280 280 280 280 279 279 280 281 282 284 284 286 288 289 290 290 290 291 292 294 296 297 299 300 301 302 303 304 304
281 282 282 281 281 280 279 279 279 279 279 280 280 279 279 280 280 280 279 279 279 279 281 281 282 284 286 287 289 289 290 290 291 292 294 296 298 299 301 302 303 304 304 304
282 283 283 282 281 280 278 278 278 278 278 278 278 279 279 279 279 280 280 280 279 280 281 282 282 283 285 286 287 288 289 290 291 293 295 297 298 300 301 303 304 304 304 304
283 283 283 282 281 281 279 277 276 277 277 277 277 278 278 278 279 280 280 280 280 281 281 282 283 283 284 286 287 288 289 290 291 293 295 297 299 300 302 303 304 305 305 305
284 284 283 282 281 281 279 277 276 276 276 275 276 277 277 277 277 278 279 279 279 280 281 281 283 284 284 285 286 286 288 289 291 293 296 297 299 301 302 304 305 305 305 305
283 283 282 282 282 281 280 279 277 276 276 275 275 276 275 275 275 275 276 277 277 278 279 281 282 283 284 285 287 288 289 290 292 295 296 297 299 301 303 304 305 305 306 306
282 282 282 282 282 282 281 279 278 277 276 275 275 275 274 274 273 274 274 276 277 278 279 281 282 282 284 285 287 289 290 291 293 295 297 298 299 301 303 304 305 305 306 306
281 281 281 281 282 281 280 279 278 276 276 276 275 274 273 273 272 272 274 275 277 278 279 280 281 282 284 286 287 288 290 291 293 296 297 298 300 302 303 303 304 305 305 306
279 279 279 279 279 279 278 277 277 276 276 275 274 273 273 273 273 273 274 276 276 277 278 279 280 282 284 286 287 288 290 292 295 297 298 299 300 302 302 303 304 305 306 306
276 277 277 277 276 275 276 276 275 275 274 274 273 273 273 273 274 274 275 275 277 278 278 279 281 282 284 285 287 289 291 294 296 298 299 300 301 302 302 303 305 306 306 307
274 275 276 276 276 274 273 273 273 273 273 273 274 274 274 274 274 274 276 277 278 278 278 279 280 281 282 284 286 289 291 294 297 299 300 301 301 302 303 304 305 306 307 308
272 273 274 275 275 275 274 275 275 275 274 274 275 275 274 274 275 275 276 277 278 278 279 280 280 281 283 285 286 288 291 294 297 299 300 301 301 302 303 304 306 307 308 308
269 271 272 273 273 274 274 274 275 275 274 275 275 275 274 274 275 276 277 277 278 278 279 280 281 282 284 285 287 289 291 294 297 298 300 301 301 302 303 305 306 308 308 308
268 270 271 271 272 272 273 273 273 273 273 274 274 273 273 274 275 276 277 277 277 278 279 279 280 282 284 285 287 289 292 295 297 299 300 301 302 303 304 305 307 308 308 308
Height
5683 5681 5680 5679 5678 5676 5675 5674 5673 5673 5672 5671 5669 5668 5668 5667 5666 5666 5665 5664 5663 5662 5661 5659 5657 5656 5654 5652 5651 5649 5646 5644 5643 5640 5638 5636 5634 5631 5629 5626 5624 5621 5619 5616
5682 5679 5678 5677 5676 5675 5673 5672 5670 5669 5669 5667 5666 5665 5664 5663 5662 5662 5661 5660 5659 5658 5656 5654 5653 5651 5650 5648 5646 5643 5641 5639 5637 5635 5632 5630 5627 5625 5622 5620 5617 5615 5612 5609
5680 5678 5677 5676 5675 5673 5671 5670 5668 5666 5666 5664 5663 5662 5661 5660 5659 5658 5657 5656 5654 5653 5651 5650 5648 5646 5645 5643 5640 5638 5636 5634 5631 5629 5626 5624 5621 5619 5616 5613 5611 5608 5605 5602
5678 5677 5675 5676 5672 5670 5669 5667 5665 5664 5662 5661 5660 5658 5657 5656 5655 5654 5652 5651 5650 5648 5646 5645 5643 5641 5639 5637 5635 5633 5630 5628 5626 5623 5620 5618 5615 5612 5609 5606 5604 5600 5597 5594
5674 5673 5672 5672 5669 5667 5665 5664 5662 5660 5659 5657 5656 5655 5654 5652 5651 5649 5648 5646 5645 5643 5642 5640 5638 5636 5634 5632 5630 5627 5625 5623 5620 5617 5615 5612 5609 5605 5602 5599 5596 5593 5589 5585
5670 5667 5667 5668 5665 5662 5662 5660 5658 5656 5654 5653 5651 5651 5650 5648 5646 5644 5643 5641 5640 5638 5637 5635 5633 5631 5629 5626 5624 5622 5619 5617 5614 5611 5608 5605 5602 5599 5595 5592 5588 5584 5581 5577
5664 5661 5662 5662 5659 5658 5657 5656 5653 5650 5649 5647 5646 5645 5644 5642 5640 5639 5637 5636 5634 5632 5631 5629 5627 5625 5622 5620 5618 5615 5613 5610 5607 5604 5601 5598 5595 5591 5588 5584 5580 5576 5572 5568
5657 5656 5657 5654 5652 5651 5650 5647 5645 5644 5642 5641 5640 5638 5637 5635 5634 5632 5631 5629 5627 5625 5624 5621 5619 5618 5615 5613 5611 5608 5605 5602 5599 5596 5593 5590 5587 5583 5579 5576 5571 5567 5563 5559
5651 5652 5648 5646 5644 5643 5641 5639 5637 5636 5635 5633 5632 5631 5629 5628 5626 5625 5623 5621 5620 5618 5616 5614 5612 5610 5608 5605 5602 5600 5597 5594 5591 5588 5585 5582 5578 5575 5571 5567 5563 5559 5554 5549
5641 5642 5640 5637 5635 5633 5631 5630 5628 5627 5626 5625 5623 5622 5621 5619 5618 5616 5615 5613 5611 5609 5607 5605 5603 5601 5599 5596 5594 5591 5588 5585 5582 5579 5576 5573 5569 5566 5562 5558 5553 5549 5544 5540
5631 5631 5629 5628 5625 5623 5621 5620 5619 5618 5616 5615 5614 5613 5611 5610 5608 5607 5605 5604 5602 5600 5598 5596 5594 5592 5589 5587 5584 5581 5579 5576 5573 5569 5566 5563 5559 5556 5552 5548 5544 5539 5534 5529
5620 5620 5617 5617 5615 5613 5611 5609 5608 5607 5606 5604 5603 5602 5601 5599 5598 5596 5595 5593 5591 5590 5588 5586 5584 5581 5579 5576 5574 5571 5569 5566 5563 5560 5556 5553 5549 5546 5542 5538 5533 5529 5524 5519
5608 5607 5605 5604 5603 5601 5599 5598 5597 5595 5594 5593 5592 5590 5589 5588 5586 5585 5583 5582 5580 5579 5577 5575 5573 5571 5568 5566 5563 5561 5558 5555 5552 5550 5546 5543 5540 5536 5531 5527 5522 5518 5513 5507
5595 5593 5593 5591 5590 5588 5587 5586 5584 5583 5582 5581 5580 5579 5577 5576 5575 5573 5572 5570 5569 5567 5566 5564 5562 5560 5558 5556 5553 5550 5548 5545 5542 5539 5536 5533 5529 5525 5521 5517 5512 5507 5501 5496
5581 5580 5579 5578 5577 5575 5574 5573 5572 5571 5570 5568 5567 5566 5565 5564 5563 5561 5560 5558 5557 5556 5554 5553 5551 5549 5547 5545 5542 5540 5537 5535 5532 5529 5526 5522 5519 5515 5511 5506 5501 5496 5490 5485
5568 5566 5564 5564 5563 5562 5560 5559 5558 5558 5556 5555 5554 5554 5553 5552 5550 5549 5548 5546 5545 5544 5542 5541 5539 5538 5536 5534 5532 5529 5527 5524 5522 5519 5515 5512 5508 5504 5500 5495 5490 5485 5479 5474
5553 5552 5551 5550 5549 5548 5546 5545 5545 5544 5543 5542 5542 5541 5540 5539 5538 5537 5536 5535 5534 5532 5531 5530 5528 5526 5525 5523 5521 5519 5517 5514 5511 5508 5505 5501 5497 5493 5489 5484 5479 5474 5469 5463
5539 5538 5537 5536 5535 5534 5533 5532 5531 5530 5530 5529 5528 5528 5527 5526 5526 5525 5524 5523 5522 5521 5520 5518 5517 5516 5514 5512 5510 5508 5506 5503 5500 5497 5494 5490 5486 5482 5478 5473 5468 5463 5458 5453
5526 5525 5524 5523 5522 5521 5520 5519 5518 5517 5517 5516 5516 5515 5514 5514 5513 5513 5512 5512 5511 5510 5509 5507 5506 5505 5503 5501 5499 5497 5495 5492 5489 5486 5483 5479 5475 5471 5467 5462 5458 5453 5448 5443
5514 5513 5511 5510 5509 5508 5507 5506 5505 5505 5504 5504 5503 5503 5502 5502 5502 5501 5501 5500 5499 5499 5498 5497 5495 5494 5492 5490 5488 5486 5484 5481 5478 5475 5472 5469 5465 5461 5456 5452 5448 5443 5439 5434
5501 5500 5499 5498 5498 5497 5495 5494 5494 5493 5492 5492 5491 5491 5491 5491 5490 5490 5489 5489 5488 5487 5487 5486 5484 5483 5481 5480 5478 5476 5473 5471 5468 5465 5461 5458 5454 5450 5446 5442 5438 5434 5429 5425
5489 5489 5487 5487 5486 5485 5484 5483 5482 5482 5481 5481 5480 5480 5479 5479 5479 5478 5478 5478 5477 5476 5476 5474 5473 5472 5471 5469 5467 5465 5463 5460 5457 5454 5451 5447 5444 5440 5436 5432 5428 5424 5420 5415
5478 5477 5476 5475 5474 5473 5473 5472 5471 5470 5470 5470 5469 5469 5468 5468 5468 5467 5467 5467 5466 5465 5464 5463 5462 5461 5460 5458 5456 5454 5452 5450 5447 5444 5441 5437 5434 5430 5427 5423 5419 5415 5411 5406
5465 5464 5464 5463 5462 5462 5461 5461 5460 5459 5459 5458 5458 5457 5457 5457 5457 5456 5456 5455 5455 5454 5453 5452 5451 5450 5449 5447 5446 5444 5442 5440 5437 5434 5431 5427 5424 5421 5417 5413 5410 5406 5402 5397
5452 5452 5451 5451 5450 5450 5449 5449 5449 5448 5447 5447 5446 5446 5445 5445 5445 5445 5444 5444 5443 5443 5442 5441 5440 5439 5438 5437 5435 5434 5432 5429 5427 5424 5421 5418 5415 5411 5408 5404 5400 5396 5393 5388
5438 5438 5438 5438 5438 5437 5437 5436 5436 5436 5435 5435 5435 5435 5434 5434 5433 5433 5433 5433 5432 5432 5431 5431 5430 5429 5428 5426 5425 5424 5422 5419 5417 5414 5411 5408 5405 5402 5399 5395 5391 5388 5384 5380
5423 5424 5424 5424 5424 5424 5423 5423 5423 5423 5423 5423 5423 5423 5423 5422 5422 5422 5422 5422 5421 5421 5421 5420 5419 5419 5418 5416 5415 5413 5412 5409 5407 5404 5402 5399 5396 5393 5390 5386 5383 5379 5375 5371